This is the latest recevied weather packets stored in our database for station/object W4TJP. If no packets are shown the sender has not sent any weather packets the latest 10 day(s).
| Time | Temp. | Humidity | Pressure | Rain* | Wind** | Luminosity | Snow |
|---|---|---|---|---|---|---|---|
| 1778020706 | 21.67° C | 43% | 1010.3 hPa | 0 mm | - | 67 W/m² | - |
| 1778020403 | 22.22° C | 43% | 1010.1 hPa | 0 mm | - | 70 W/m² | - |
| 1778020099 | 22.22° C | 44% | 1010.2 hPa | 0 mm | - | 63 W/m² | - |
| 1778019795 | 22.22° C | 42% | 1010.4 hPa | 0 mm | - | 86 W/m² | - |
| 1778019492 | 22.22° C | 42% | 1010.1 hPa | 0 mm | - | 90 W/m² | - |
| 1778019189 | 22.22° C | 41% | 1010.1 hPa | 0 mm | - | 115 W/m² | - |
| 1778018886 | 22.22° C | 43% | 1010.3 hPa | 0 mm | - | 121 W/m² | - |
| 1778018583 | 22.78° C | 44% | 1010.2 hPa | 0 mm | - | 98 W/m² | - |
| 1778018281 | 22.78° C | 47% | 1009.9 hPa | 0 mm | - | 122 W/m² | - |
| 1778017979 | 22.78° C | 45% | 1010.1 hPa | 0 mm | - | 124 W/m² | - |
| 1778017676 | 23.33° C | 45% | 1010 hPa | 0 mm | - | 87 W/m² | - |
| 1778017374 | 23.33° C | 43% | 1010 hPa | 0 mm | - | 130 W/m² | - |
| 1778017071 | 23.89° C | 44% | 1009.8 hPa | 0 mm | - | 361 W/m² | - |
| 1778016768 | 24.44° C | 42% | 1010.1 hPa | 0 mm | - | 382 W/m² | - |
| 1778016464 | 23.89° C | 41% | 1010.1 hPa | 0 mm | - | 389 W/m² | - |
| 1778016162 | 23.89° C | 41% | 1010.1 hPa | 0 mm | - | 434 W/m² | - |
| 1778015858 | 23.89° C | 45% | 1010.2 hPa | 0 mm | - | 382 W/m² | - |
| 1778015556 | 23.89° C | 45% | 1010.4 hPa | 0 mm | - | 447 W/m² | - |
| 1778015252 | 23.89° C | 48% | 1010.4 hPa | 0 mm | - | 405 W/m² | - |
| 1778014948 | 24.44° C | 47% | 1010.5 hPa | 0 mm | - | 495 W/m² | - |
| 1778014646 | 23.89° C | 48% | 1010.4 hPa | 0 mm | - | 492 W/m² | - |
| 1778014344 | 23.33° C | 49% | 1010.6 hPa | 0 mm | - | 568 W/m² | - |
| 1778014040 | 23.33° C | 52% | 1010.6 hPa | 0 mm | - | 314 W/m² | - |
| 1778013739 | 22.78° C | 53% | 1010.7 hPa | 0 mm | - | 377 W/m² | - |
| 1778013436 | 22.78° C | 51% | 1010.7 hPa | 0 mm | - | 271 W/m² | - |
* Rain latest hour (hover to see other rain measurements)
** Current wind speed in m/s (hover to see current wind gust speed)